Погода Терней

Погода Терней : погода сейчас, прогноз погоды и архив. Всё, что Вы хотите узнать о погоде Терней!

Хотите узнать прогноз погоды Терней? Тогда Вам сюда: Погода Терней

Поиск расширенной информации на нашем сайте:

Другие новости

Новости СМИ2

Главная страница сайта

Новости сайта

03.07.2017

Напоминаем, что на нашем специализированном сайте Метеоцентр.Азия вы можете получить высокодетализированные автоматические прогнозы погоды по пунктам России, СНГ и мира в авиационном формате (включающие направление и скорость ветра, видимость, явления погоды, количество и форму облачности, нижнюю и верхнюю границу облачности).


Погода Терней - сегодня

Время (UTC), дата Ветер
(°,м/с) 
Видим.   Явления Облачность Т
(°С)
Тd
(°С)
f(%) Тe
(°С)
Pmin
(гПа)
dP
(гПа)
Po
(мм)
O2
(г/м3)
Тmin Tmax R s Состояние
почвы
18 17.04.18 260 (З) 20000 м    ясно 
+1.7 -1.6 79 +2  1011.9  -1  753  302           
00 18.04.18 110 (В) 20000 м    3/1 200 м верхняя 
[St|Ci sp]
+5.1 +0 70 +5  1011.4  -0.5  753  298           
03 18.04.18 090 (В) 20000 м    3/1 200 м верхняя 
[St|Ci sp]
+5.3 +0.4 71 +4  1009.9  -1.5  752  297           
06 18.04.18 070 (В) 20000 м    3/3 200 м 
[St]
+6.1 +1.5 72 +6  1008.1  -1.8  750  296           
12 18.04.18 310 (СЗ) 20000 м    3/3 200 м 
[St]
+1 -0.1 92 1008.4  0.5  751  301           
15 18.04.18 280 (З) 20000 м    ясно 
+3.2 +0.4 82 +4  1008.3  -0.1  750  299           
18 18.04.18 310 (СЗ) 20000 м    ясно 
+4.5 +0.1 73 +3  1008.4  0.2  751  297           
00 19.04.18 120 (ЮВ) 20000 м    3/3 200 м 
[St]
+5 +0.6 73 +4  1011.1  0.7  753  298           
06 19.04.18 130 (ЮВ) 5{10}  20000 м    10/10 200 м 
[St]
+2.6 +0.3 85 1010.8  -1.1  752  300           
12 19.04.18 290 (З) 20000 м    3/0 средняя 
[As op]
+0.3 -0.8 92 +1  1013.6  1.4  754  304           
15 19.04.18 280 (З) 20000 м    ясно 
+0.3 -0.8 92 +1  1014.4  0.7  755  304           
18 19.04.18 тихо ()   1000 м  дымка{туман}  9/9 100 м 
[St]
-0.9 -1.5 96 -1  1015.1  0.7  755  306           
00 20.04.18 040 (СВ) 20000 м    3/1 100 м верхняя 
[St|Ci fib]
+10.9 +3 58 +12  1015.1  0.3  756  292           
03 20.04.18 060 (СВ) 20000 м    8/0 верхняя 
[Ci]
+8.4 +1.3 61 +8  1013.6  -1.5  755  295           
06 20.04.18 060 (СВ) 20000 м    8/0 верхняя 
[Ci]
+13.5 +3.1 49 +14  1011  -2.5  753  289           
12 20.04.18 300 (СЗ) 20000 м    10/0 средняя 
[As op]
+6 +1.6 73 +7  1010.1  0.7  752  296           
15 20.04.18 020 (С) 20000 м    10/0 средняя 
[As op]
+3.6 +1.2 84 +4  1008.3  -1.9  751  298           
18 20.04.18 120 (ЮВ) 20000 м    10/0 средняя 
[As op]
+3.4 +1.3 86 +4  1005.2  -3  748  298           
00 21.04.18 320 (СЗ) 20000 м    6/0 верхняя 
[Ci sp]
+21 +4.2 33 +21  1001.3  -1  746  278           
12 21.04.18 280 (З) 2{14}  20000 м    10/0 верхняя 
[Cs]
+11.1 +0.4 48 +11  1016.5  4.9  757  293           
15 21.04.18 310 (СЗ) 3{11}  20000 м    10/0 верхняя 
[Cs]
+8.8 -1.6 48 +8  1018.4  1.8  758  296           
18 21.04.18 290 (З) 20000 м    ясно 
+8 -2.2 48 +9  1019.8  1.4  759  297           
00 22.04.18 120 (ЮВ) 20000 м    10/0 средняя, верхняя 
[Ac trans|Cs]
+6.3 +1.2 70 +5  1023  762  300           
03 22.04.18 100 (В) 20000 м    3/0 верхняя 
[Ci fib]
+6.7 +1.7 70 +5  1021.8  -1.2  761  299           
06 22.04.18 100 (В) 3{10}  20000 м    1/1 200 м 
[St]
+6.3 +2 74 +5  1021.2  -0.6  760  299           
Время (UTC), дата Ветер
(°,м/с) 
Видим.   Явления Облачность Т
(°С)
Тd
(°С)
f(%) Тe
(°С)
Pmin
(гПа)
dP
(гПа)
Po
(мм)
O2
(г/м3)
Тmin Tmax R s Состояние
почвы

Для получения пояснительной информации подведите курсор к названию столбца.

ПОГОДА Терней - архив

Всё, что Вы хотите узнать о погоде Терней - удобно и подробно!

Выберите нужную дату (начиная с 1 января 2015* года) и нажмите кнопку "Найти".
Будут отображены архивные сводки погоды по пункту Терней, начиная с указанной даты.


Отображать данные в формате CSV (для использования в таблицах Excel)


Внимание! Наш архив погоды предназначен исключительно для личного некоммерческого использования в познавательных целях. Если Вам необходимы официальные справки о состоянии погоды (для производственных, юридических, коммерческих и т.п. целей), обращайтесь в органы Росгидромета.

*Примечание: данная дата относится к архиву по метеостанциям СССР (Россия, СНГ, Балтия).
Архив по метеостанциям Зарубежной Европы и Азии (кроме Китая) хранится 10 дней, по другим регионам земного шара (Китай, Африка, Америка, Австралия, Океания) - 1 день.

Терней - район местоположения метеостанции


Название, широта, долгота, высота метеостанции:
Терней 45°ш. 136.6°д. 68 м над ур. моря [Российская Федерация]

Дополнительная информация

В oтличие oт бoльшинства пoгoдных сайтoв мы публикуем пoдрoбную метеoинфoрмацию в детальнoм прoфессиoнальнoм фoрмате.

Характеристики температуры и влажнoсти вoздуха измеряются на высoте 2 м в тени вдали oт зданий и деревьев.
Скoрoсть ветра измеряется на высoте 10 м (на урoвне рoста челoвека скoрoсть ветра ниже в 1.5-2 раза). Если метеoстанция нахoдится в гoрoде или в лесу, тo скoрoсть ветра занижена на 2-4 м/с пo сравнению с oткрытым местoм. Скoрoсть ветра над акватoриями крупных рек и oзёр, а также на вершинах хoлмoв на 2-5 м/с выше, чем в oбычных услoвиях.
Атмoсфернoе давление в разных тoчках местнoсти мoжет значительнo oтличаться oт давления на метеoстанции, в зависимoсти oт услoвий рельефа (при пoдъёме на 10 м давление пoнижается примернo на 1 мм рт.ст.).